Miscellaneous Local Product
Issued by NWS Hastings, NE

Home | Current Version | Previous Version | Graphics & Text | Print | Product List | Glossary On
Versions: 1 2 3 4 5 6 7 8 9 10 11 12 13 14 15 16 17 18 19 20 21 22 23 24 25 26 27 28 29 30 31 32 33 34 35 36 37 38 39 40 41 42 43 44 45 46 47 48 49 50
000
AXUS43 KGID 010102
MISGRI

GID CWA HOURLY WEATHER ROUNDUP
NATIONAL WEATHER SERVICE HASTINGS NE
800 PM CDT SUN MAY 31 2015

NOTE: "FAIR" INDICATES FEW OR NO CLOUDS BELOW 12,000 FEET WITH NO
SIGNIFICANT WEATHER AND/OR OBSTRUCTIONS TO VISIBILITY.

...SOUTH CENTRAL NEBRASKA...

CITY           SKY/WX    TMP DP  RH WIND       PRES   REMARKS
GRAND ISLAND   PTCLDY    71  49  45 SE7       30.08R
HASTINGS       PTCLDY    68  51  54 S8        30.07R
KEARNEY        PTCLDY    68  52  56 S13       30.08R
ORD            CLOUDY    67  46  47 SE13      30.05R
YORK           CLOUDY    66  50  55 E10G18    30.09R
AURORA         MOCLDY    69  47  45 SE13      30.08R
LEXINGTON      CLEAR     70  53  54 SE14      30.05R
HOLDREGE       MOCLDY    69  51  51 SE16      30.06R
HEBRON         PTCLDY    68  48  48 SE9       30.07S

...NEBRASKA PANHANDLE...

CITY           SKY/WX    TMP DP  RH WIND       PRES   REMARKS
CHADRON        MOSUNNY   73  57  57 NE9       29.98R
ALLIANCE       MOSUNNY   71  57  61 NE6       30.00R
SCOTTSBLUFF    MOSUNNY   76  52  43 E12       30.00R
SIDNEY         MOSUNNY   75  55  49 E7        30.03R

...WESTERN AND NORTH CENTRAL NEBRASKA...

CITY           SKY/WX    TMP DP  RH WIND       PRES   REMARKS
VALENTINE      SUNNY     71  53  52 SE16G25   30.00R
AINSWORTH      SUNNY     68  50  52 SE15      30.03S
ONEILL         CLOUDY    65  48  54 SE9       30.07S
BROKEN BOW     CLOUDY    70  52  52 SE13      30.04S
IMPERIAL       MOSUNNY   74  58  57 SE14      29.98R
NORTH PLATTE   SUNNY     71  56  58 SE17      30.00S
MCCOOK         SUNNY     75  56  51 SE15G24   29.99S

...EASTERN NEBRASKA...

CITY           SKY/WX    TMP DP  RH WIND       PRES   REMARKS
NORFOLK        CLOUDY    63  43  48 E12       30.11S
SO SIOUX CITY  CLOUDY    60  49  66 S9        30.15R
TEKAMAH        CLOUDY    66  42  41 SE6       30.13R
COLUMBUS       CLOUDY    64  45  48 E10       30.12S
ALBION         CLOUDY    65  46  48 SE13      30.09R
OMAHA EPPLEY   CLOUDY    66  43  43 SE9       30.11F
OFFUTT AFB     CLOUDY    64  46  50 E7        30.10F
MILLARD        CLOUDY    66  45  45 E6        30.11S
LINCOLN        MOCLDY    66  44  45 E10       30.11R
NEBRASKA CITY  CLOUDY    63  41  43 E6        30.11S
BEATRICE       MOCLDY    66  50  56 SE6       30.10R
FALLS CITY     MOCLDY    65  47  52 E8        30.09S

...NORTHERN KANSAS...

CITY           SKY/WX    TMP DP  RH WIND       PRES   REMARKS
GOODLAND       LGT RAIN  69  61  75 SE9       30.00S
HILL CITY      MOCLDY    73  56  54 SE12G21   30.02S
NORTON         MOCLDY    73  52  46 E13       30.02S
PHILLIPSBURG   CLOUDY    73  55  53 SE9       30.05R
SMITH CENTER   CLEAR     66  54  63 SE13      30.07R
HAYS           PTCLDY    72  54  53 SE15      30.04R
RUSSELL        CLEAR     71  56  58 SE15      30.04R
CONCORDIA      PTCLDY    66  53  63 SE7       30.07R
SALINA         CLEAR     71  54  54 SE10      30.07R
TOPEKA         MOCLDY    67  53  61 E7        30.10R



USA.gov is the U.S. government's official web portal to all federal, state and local government web resources and services.